Flag for Germany Weather past 2 weeks in Arnsberg, North Rhine-Westphalia, Germany

Now
59 °F

Sunny.


Feels Like: 57 °F
Forecast: 39 / 49 °F
Wind: 12 mph from Southwest

Location: Dortmund / Wickede


UV Index: 0 (Low)

Visibility: 10 mi


Pressure: 29.98 "Hg

Humidity: 34%

Dew point: 30 °F

Location of ArnsbergLocation

Historic Weather in Arnsberg

°F

Arnsberg temperature yesterday

Maximum temperature yesterday: 55 °F (at 2:50 PM)
Minimum temperature yesterday: 30 °F (at 5:20 AM)
Average temperature yesterday: 47 °F

Past Weeks' High & Low Weather Summary

 TemperatureHumidityPressure
High72 °F (Apr 3, 12:50 PM)94% (Apr 5, 5:20 AM)30.45 "Hg (Apr 5, 5:20 AM)
Low30 °F (Apr 16, 5:20 AM)29% (Apr 17, 3:50 PM)29.62 "Hg (Apr 3, 5:20 AM)
Average53 °F65%30.04 "Hg
* Reported Apr 2 5:20 PM — Apr 17 5:50 PM, Arnsberg, Weather by CustomWeather, © 2014

Note: Actual official high and low records may vary slightly from our data, if they occured in-between our weather recording intervals... More about our weather records

Advertising

Historic Weather Conditions — Data for Previous 24 hours

 ConditionsComfort  
Time TempWeatherWind HumidityBarometerVisibility
5:50 PM
Apr 17
59 °FPassing clouds.13 mph36%29.98 "HgN/A
5:20 PM61 °FPassing clouds.12 mph29%29.98 "HgN/A
4:50 PM61 °FPassing clouds.13 mph29%30.01 "HgN/A
4:20 PM61 °FPassing clouds.13 mph29%30.04 "HgN/A
3:50 PM61 °FPassing clouds.14 mph29%30.04 "HgN/A
3:20 PM61 °FPassing clouds.12 mph31%30.07 "HgN/A
2:50 PM59 °FPassing clouds.12 mph31%30.09 "HgN/A
2:20 PM59 °FPassing clouds.10 mph34%30.09 "HgN/A
1:50 PM59 °FPassing clouds.9 mph31%30.12 "HgN/A
1:20 PM57 °FPassing clouds.9 mph36%30.12 "HgN/A
12:50 PM57 °FPassing clouds.9 mph36%30.15 "HgN/A
12:20 PM57 °FSunny.12 mph39%30.18 "Hg10 mi
11:50 AM55 °FSunny.10 mph41%30.18 "Hg10 mi
11:20 AM54 °FSunny.10 mph35%30.21 "Hg10 mi
10:50 AM54 °FSunny.13 mph35%30.21 "Hg10 mi
10:20 AM54 °FSunny.14 mph38%30.24 "Hg10 mi
9:50 AM52 °FSunny.14 mph44%30.24 "Hg10 mi
9:20 AM50 °FPassing clouds.12 mph43%30.24 "HgN/A
8:50 AM48 °FPassing clouds.10 mph46%30.24 "HgN/A
8:20 AM46 °FSunny.10 mph50%30.24 "Hg10 mi
7:50 AM45 °FSunny.10 mph49%30.24 "Hg10 mi
7:20 AM43 °FClear.9 mph57%30.24 "Hg10 mi
6:50 AM41 °FClear.8 mph61%30.24 "Hg10 mi
6:20 AM41 °FClear.7 mph61%30.27 "Hg10 mi
5:50 AM41 °FClear.5 mph61%30.27 "Hg10 mi
9:50 PM
Apr 16
48 °FClear.7 mph54%30.33 "Hg10 mi
9:20 PM48 °FSunny.7 mph54%30.33 "Hg10 mi
8:50 PM48 °FSunny.6 mph54%30.36 "Hg10 mi
8:20 PM50 °FSunny.6 mph50%30.33 "Hg10 mi
7:50 PM54 °FPassing clouds.8 mph44%30.33 "HgN/A
7:20 PM55 °FPassing clouds.7 mph41%30.36 "HgN/A
Weather by CustomWeather, © 2014

See weather overview